Location: Aalen
(48.8330°N, 10.1000°E)
Time: 00:21:31
(UTC+02:00)

Transit 4A - Pass Details

Date: 03 August 2021
Orbit: 870 x 974 km, 66.8° (Epoch: 26 September)

Event Time Altitude Azimuth Distance (km) Brightness Sun altitude
Rises 06:14:03 0° 318° (NW) 3,467 10.7 1.8°
Reaches altitude 10° 06:17:42 10° 340° (NNW) 2,530 10.3 2.4°
Maximum altitude 06:21:04 15° 16° (NNE) 2,170 10.5 2.9°
Drops below altitude 10° 06:24:27 10° 52° (NE) 2,545 12.1 3.4°
Sets 06:28:07 0° 74° (ENE) 3,499 13.6 4.0°
